sat.trackr.live / text

‹ back to catalog

STARLINK-32664

NORAD 62204 · 2024-229N

PAYLOAD ACTIVE UNKNOWN

§ Identity

Operator
Country
US
Launch date
2024-12-04
Launch site
AFETR
Launch vehicle
Mass (kg)
RCS (m²)

Purposes: comms

External: N2YO · Heavens-Above · Gunter

§ Orbital elements

Epoch: 2026-05-25T04:13:14.495808Z

Period
92.84 min
Inclination
42.9958°
Eccentricity
0.0018566
Mean motion
15.51000669 rev/d
Perigee alt
401.2 km
Apogee alt
426.4 km
Semi-major
6,791.9 km
B*
2.1663e-3
RAAN
188.8006°
Arg perigee
65.3153°
Mean anomaly
294.9638°
Rev number
8,237

§ Raw data

STARLINK-326641 62204U 24229N   26145.17586222  .00131720  00000+0  21663-2 0  99972 62204  42.9958 188.8006 0018566  65.3153 294.9638 15.51000669 82377

JSON: /api/v1/satellites/62204 · /tle

For live sub-satellite position, see the globe view (requires WebGL).

§ Visibility from observer

Set your observer location to see the next 7 days of passes ≥ 10°. The values pass through the URL so the page stays shareable.

No JS? Fill the form by hand. The geolocation button needs JavaScript.